This is the latest recevied weather packets stored in our database for station/object N3WGC-14. If no packets are shown the sender has not sent any weather packets the latest 1 day(s).
| Time | Temp. | Humidity | Pressure | Rain* | Wind** | Luminosity | Snow |
|---|---|---|---|---|---|---|---|
| 1778051994 | 18.89° C | 81% | 1010.5 hPa | 0 mm | 0.89 m/s, 97° | - | - |
| 1778051694 | 18.89° C | 81% | 1010.6 hPa | 0 mm | 0.45 m/s, 57° | - | - |
| 1778051393 | 18.89° C | 81% | 1010.6 hPa | 0 mm | 0.89 m/s, 108° | - | - |
| 1778051093 | 18.89° C | 81% | 1010.6 hPa | 0 mm | 0.45 m/s, 105° | - | - |
| 1778050793 | 19.44° C | 81% | 1010.7 hPa | 0 mm | 0.45 m/s, 107° | - | - |
| 1778050493 | 19.44° C | 80% | 1010.6 hPa | 0 mm | 0.45 m/s, 70° | - | - |
| 1778050193 | 19.44° C | 80% | 1010.6 hPa | 0 mm | 0.89 m/s, 89° | - | - |
| 1778049893 | 19.44° C | 80% | 1010.6 hPa | 0 mm | 0.45 m/s, 93° | - | - |
| 1778049593 | 19.44° C | 80% | 1010.6 hPa | 0 mm | 0.89 m/s, 77° | - | - |
| 1778049292 | 19.44° C | 80% | 1010.6 hPa | 0 mm | 1.34 m/s, 173° | - | - |
| 1778048992 | 19.44° C | 80% | 1010.7 hPa | 0 mm | 0.89 m/s, 104° | - | - |
| 1778048692 | 19.44° C | 80% | 1010.7 hPa | 0 mm | 0.89 m/s, 94° | - | - |
| 1778048392 | 19.44° C | 80% | 1010.8 hPa | 0 mm | 0.89 m/s, 339° | - | - |
| 1778048092 | 19.44° C | 80% | 1010.8 hPa | 0 mm | 0.89 m/s, 95° | - | - |
| 1778047792 | 19.44° C | 79% | 1010.8 hPa | 0 mm | 1.34 m/s, 187° | - | - |
| 1778047492 | 19.44° C | 79% | 1010.8 hPa | 0 mm | 0.45 m/s, 10° | - | - |
| 1778047191 | 20° C | 79% | 1010.9 hPa | 0 mm | 1.34 m/s, 211° | - | - |
| 1778046891 | 20° C | 78% | 1010.8 hPa | 0 mm | 1.34 m/s, 39° | - | - |
| 1778046591 | 20° C | 78% | 1010.8 hPa | 0 mm | 0.89 m/s, 323° | - | - |
| 1778046291 | 20° C | 78% | 1010.8 hPa | 0 mm | 0.45 m/s, 88° | - | - |
| 1778045991 | 20° C | 78% | 1010.9 hPa | 0 mm | 0.89 m/s, 290° | - | - |
| 1778045691 | 20° C | 77% | 1011 hPa | 0 mm | 0.89 m/s, 63° | - | - |
| 1778045390 | 20° C | 77% | 1011 hPa | 0 mm | 0.89 m/s, 247° | - | - |
| 1778045090 | 20° C | 78% | 1011 hPa | 0 mm | 0.89 m/s, 116° | - | - |
| 1778044790 | 20° C | 78% | 1011.1 hPa | 0 mm | 0.89 m/s, 89° | - | - |
* Rain latest hour (hover to see other rain measurements)
** Current wind speed in m/s (hover to see current wind gust speed)